AirNav   Pilot Hours Calculator
 
 1122 users online  

9A0 Lumpkin County-Wimpys Airport
Dahlonega, Georgia, USA

GOING TO DAHLONEGA?


FAA INFORMATION EFFECTIVE 25 FEBRUARY 2021

Location

FAA Identifier: 9A0
Lat/Long: 34-34-59.3000N 084-01-11.9000W
34-34.988333N 084-01.198333W
34.5831389,-84.0199722
(estimated)
Elevation: 1311 ft. / 400 m (estimated)
Variation: 03W (1985)
From city: 3 miles NW of DAHLONEGA, GA
Time zone: UTC -5 (UTC -4 during Daylight Saving Time)
Zip code: 30533

Airport Operations

Airport use: Open to the public
Activation date: 08/1956
Control tower: no
ARTCC: ATLANTA CENTER
FSS: MACON FLIGHT SERVICE STATION
NOTAMs facility: MCN (NOTAM-D service available)
Attendance: UNATNDD
Wind indicator: yes
Segmented circle: no
Lights: RDO CTL

Airport Communications

CTAF: 122.9
WX AWOS-3PT at DZJ (16 nm N): 119.325 (706-745-9271)

Nearby radio navigation aids

VOR radial/distance  VOR name  Freq  Var
HRSr193/22.2HARRIS VORTAC109.8000E
ODFr259/36.3FOOTHILLS VOR/DME113.4000E

 
NDB name  Hdg/Dist  Freq  Var  ID
FLOWERY BRANCH349/23.536503WFKV ..-. -.- ...-
CHERO054/30.541505WDJD -.. .--- -..

Airport Services

Fuel available: 100LL
24 HOUR SELF SERVE WITH CREDIT CARD.
Parking: tiedowns
Airframe service: NONE
Powerplant service: NONE
Bottled oxygen: NONE
Bulk oxygen: NONE

Runway Information

Runway 15/33

Dimensions: 3090 x 50 ft. / 942 x 15 m
Surface: asphalt, in good condition
Weight bearing capacity: 
Single wheel: 12.0
Runway edge lights: non-standard
NSTD LIRL THE LENGTH OF THE RY. NO THLD LIGHTS. LIRL OTS INDEFLY.
RUNWAY 15  RUNWAY 33
Latitude: 34-35.210333N34-34.767167N
Longitude: 084-01.350167W084-01.046000W
Traffic pattern: leftleft
Displaced threshold: 754 ft.695 ft.
Markings: basic, in good conditionbasic, in good condition
Obstructions: 137 ft. trees, 1236 ft. from runway, 225 ft. left of centerline, 8:1 slope to clear
15:1 APCH SLP TO DSPLCD THLD, TREES 450 FT OUT & 150 FT RIGHT.
22 ft. trees, 310 ft. from runway, 50 ft. right of centerline, 5:1 slope to clear
APCH SLOPE 25:1 TO DSPLCD THLD, TREELINE 2,325 FROM DSPLCD THLD.

Airport Ownership and Management from official FAA records

Ownership: Publicly-owned
Owner: LUMPKIN COUNTY AIRPORT AUTHORITY
99 COURTHOUSE HILL, SUITE H
DAHLONEGA, GA 30533
Phone (706) 265-0284
Manager: JIMMY BERRONG
99 COURTHOUSE HILL, SUITE H
DAHLONEGA, GA 30533
Phone (706) 265-0284
AIRPORT ADDRESS: 1682 CAMP WAHSEGA RD

Airport Operational Statistics

Aircraft based on the field: 26
Single engine airplanes: 25
Multi engine airplanes: 1
    
Aircraft operations: avg 107/week *
54% local general aviation
36% transient general aviation
11% military
* for 12-month period ending 31 December 2018

Additional Remarks

ARPT CLSD TO ACFT AT NIGHT, DAYTIME USE ONLY.
DEER & WILDLIFE ON OR INVOF ARPT.
FOR CD CTC ATLANTA ARTCC AT 770-210-7692.

Instrument Procedures

There are no published instrument procedures at 9A0.

Some nearby airports with instrument procedures:

KDZJ - Blairsville Airport (16 nm N)
KGVL - Lee Gilmer Memorial Airport (21 nm SE)
KJZP - Pickens County Airport (23 nm W)
KAJR - Habersham County Airport (23 nm E)
49A - Gilmer County Airport (25 nm W)
 
Loc | Ops | Rwys | IFR | FBO | Links
Com | Nav | Svcs | Stats | Notes
Area around 9A0 (Lumpkin County-Wimpys Airport)
 
Road maps at: MapQuest Bing Google
 
Aerial photo
WARNING: Photo may not be current or correct
Aerial photo of 9A0 (Lumpkin County-Wimpys Airport)
Photo by Jerry Morris
Photo taken 17-Sep-2015
looking south.

Do you have a better or more recent aerial photo of Lumpkin County-Wimpys Airport that you would like to share? If so, please send us your photo.

 
Sectional chart

 
Airport distance calculator
Flying to Lumpkin County-Wimpys Airport? Find the distance to fly.

From to 9A0

Sunrise and sunset
Times for 27-Feb-2021
 Local
(UTC-5)
 Zulu
(UTC)
Morning civil twilight06:4311:43
Sunrise07:0912:09
Sunset18:2923:29
Evening civil twilight18:5423:54

Current date and time
Zulu (UTC)  27-Feb-2021 16:39:05
Local (UTC-5)  27-Feb-2021 11:39:05
 
METAR
KDZJ 
16nm N 
271615Z AUTO 21007KT 10SM BKN016 OVC022 17/14 A3020 RMK AO2 T01730143
KGVL 
21nm SE 
271620Z AUTO 00000KT 8SM OVC005 09/07 A3025 RMK AO2 T00940072
KJZP 
23nm W 
271615Z AUTO 20004KT 1/4SM FG OVC002 09/09 A3025 RMK AO2 T00890089
KAJR 
23nm E 
271615Z AUTO 00000KT 3/4SM SN OVC002 10/09 A3023 RMK AO2 T00950085
K49A 
25nm W 
271615Z AUTO 16004KT 10SM OVC004 12/11 A3023 RMK AO2 T01240109
KCNI 
26nm SW 
271615Z AUTO 08003KT 5SM BR OVC003 09/09 A3024 RMK AO2
TAF
KPDK 
44nm S 
271140Z 2712/2812 VRB03KT 4SM BR OVC004 FM271400 16005KT 3SM BR OVC004 FM271600 17007KT 6SM BR BKN005 FM271800 20008KT P6SM BKN008 FM272100 19006KT P6SM SCT015 BKN025 FM280100 VRB03KT P6SM BKN050 FM280800 17004KT P6SM SCT010 BKN025
KRYY 
45nm SW 
271140Z 2712/2812 12005KT 3SM BR OVC004 FM271400 15006KT 4SM BR OVC003 FM271700 17007KT P6SM BKN007 FM271900 19008KT P6SM BKN012 FM272100 19007KT P6SM SCT012 BKN020 FM280000 17005KT P6SM BKN040 FM280800 17005KT P6SM SCT009 BKN020
KMGE 
47nm SW 
270600Z 2706/2812 11009KT 6000 BR OVC004 QNH3009INS BECMG 2714/2715 16009KT 9999 NSW BKN015 QNH3016INS BECMG 2717/2718 18009KT 9999 SCT020 QNH3012INS BECMG 2805/2806 VRB06KT 8000 BR BKN010 QNH3011INS BECMG 2809/2810 VRB06KT 6000 BR OVC004 QNH3012INS TX20/2720Z TN09/2706Z
NOTAMs
Click for the latest NOTAMs
NOTAMs are issued by the DoD/FAA and will open in a separate window not controlled by AirNav.

 

 
 

FBO, Fuel Providers, and Aircraft Ground Support

  
 Business Name 
 
 Contact 
 
 Services / Description 
 
Fuel Prices
 
Comments
  
Lumpkin County-Wimpy's Airport 706-265-0284
no information available

If you are affiliated with Lumpkin County-Wimpy's Airport and would like to show here your services, contact info, web link, logo, and more, click here
100LL
SS $4.39 
 Updated 18-Feb-2021
 
   write
SS=Self service
Update Fuel Prices
 

Would you like to see your business listed on this page?

 If your business provides an interesting product or service to pilots, flight crews, aircraft, or users of the Lumpkin County-Wimpys Airport, you should consider listing it here.  To start the listing process, click on the button below
 
Add a business
 

Other Pages about Lumpkin County-Wimpys Airport

Update a link
 
Copyright © AirNav, LLC. All rights reserved. Privacy Policy  Contact